EW4799 Weather Reports


time (UTC)temp
F
wind
direction
speed
knots
gust
knots
rain 1hr
in
rain 24hr
in
rain mn
in
humidity
%
barometer
mb
20260902031601 64 191 1.7 5.2 0.00 0.00 0.00 76 1010.8
20260902030103 65 167 1.7 4.3 0.00 0.00 0.00 73 1010.6
20260902024555 65 180 0.0 2.6 0.00 0.00 0.00 73 1010.4
20260902023055 66 166 0.9 4.3 0.00 0.00 0.00 73 1010.5
20260902021556 66 237 0.0 1.7 0.00 0.00 0.00 73 1010.4
20260902020105 66 166 0.0 3.5 0.00 0.00 0.00 72 1010.4
20260902014557 66 0 0.0 2.6 0.00 0.00 0.00 72 1010.6
20260902013054 66 175 0.9 5.2 0.00 0.00 0.00 72 1010.6
20260902011600 67 162 1.7 5.2 0.00 0.00 0.00 69 1010.5
20260902010116 67 0 0.9 2.6 0.00 0.00 0.00 69 1010.4
20260902004605 67 180 1.7 5.2 0.00 0.00 0.00 69 1010.6
20260902003102 68 233 1.7 7.8 0.00 0.00 0.00 69 1010.7
20260902001622 68 327 1.7 4.3 0.00 0.00 0.00 68 1010.5
20260902000057 68 198 1.7 6.1 0.00 0.00 0.00 68 1010.4
20260901234601 67 200 1.7 5.2 0.00 0.00 0.00 69 1010.3
20260901233059 67 181 0.9 2.6 0.00 0.00 0.00 70 1010.4
20260901231559 67 176 0.9 3.5 0.00 0.00 0.00 69 1010.5
20260901230104 67 157 0.9 2.6 0.00 0.00 0.00 70 1010.4
20260901224605 66 154 1.7 5.2 0.00 0.00 0.00 71 1010.5
20260901223105 67 210 0.9 4.3 0.00 0.00 0.00 70 1010.4
20260901221604 67 164 0.9 3.5 0.00 0.00 0.00 71 1010.5
20260901220106 67 0 0.9 4.3 0.00 0.00 0.00 71 1010.5
20260901214604 67 183 1.7 4.3 0.00 0.00 0.00 70 1010.4
20260901213122 67 200 0.0 2.6 0.00 0.00 0.00 70 1010.4
20260901211603 67 0 0.0 4.3 0.00 0.00 0.00 71 1010.6
20260901210118 68 153 0.9 3.5 0.00 0.00 0.00 70 1010.8
20260901204603 68 345 0.0 2.6 0.00 0.00 0.00 68 1010.8
20260901203103 68 186 0.9 5.2 0.00 0.00 0.00 68 1010.9
20260901201555 69 162 0.9 2.6 0.00 0.00 0.00 67 1010.8
20260901200110 69 203 0.9 3.5 0.00 0.00 0.00 67 1010.9
20260901194558 68 226 1.7 5.2 0.00 0.00 0.00 68 1011.0
20260901193057 67 203 1.7 4.3 0.00 0.00 0.00 70 1011.0
20260901191601 67 133 1.7 7.0 0.00 0.00 0.00 71 1011.0
20260901190111 66 158 1.7 5.2 0.00 0.00 0.00 71 1011.0
20260901184605 66 233 1.7 7.0 0.00 0.00 0.00 71 1011.1
20260901183108 66 184 0.9 6.1 0.00 0.00 0.00 73 1011.0
20260901181602 65 106 0.9 3.5 0.00 0.00 0.00 74 1011.0
20260901180058 64 209 1.7 7.0 0.00 0.00 0.00 75 1010.9
20260901174603 63 169 0.9 6.1 0.00 0.00 0.00 78 1010.8
20260901173101 63 190 0.9 9.6 0.00 0.00 0.00 79 1010.6
20260901171603 62 158 0.0 3.5 0.00 0.00 0.00 81 1010.7
20260901170109 61 205 0.0 3.5 0.00 0.00 0.00 82 1010.8
20260901164607 60 198 0.9 3.5 0.00 0.00 0.00 83 1010.9
20260901163108 60 167 0.9 4.3 0.00 0.00 0.00 83 1011.0
20260901161627 60 195 0.9 3.5 0.00 0.00 0.00 83 1011.0
20260901160104 60 182 0.9 3.5 0.00 0.00 0.00 84 1011.0
20260901154620 59 0 0.9 3.5 0.00 0.00 0.00 84 1011.0
20260901153109 59 178 0.9 3.5 0.00 0.00 0.00 84 1011.1
20260901151601 59 160 0.9 3.5 0.00 0.00 0.00 85 1011.1
20260901150121 59 162 0.0 3.5 0.00 0.00 0.00 85 1011.2
20260901144600 59 0 0.9 4.3 0.00 0.00 0.00 85 1010.8
20260901143059 58 172 0.9 2.6 0.00 0.00 0.00 85 1010.8
20260901141602 58 0 0.0 1.7 0.00 0.00 0.00 85 1010.7
20260901134600 59 167 0.9 2.6 0.00 0.00 0.00 84 1010.3
20260901133055 59 0 0.0 3.5 0.00 0.00 0.00 84 1010.3
20260901131556 59 205 1.7 6.1 0.00 0.00 0.00 84 1010.2
20260901130059 59 0 0.0 0.9 0.00 0.00 0.00 85 1010.2
20260901124558 59 188 0.0 1.7 0.00 0.00 0.00 86 1010.1
20260901123058 58 172 0.9 2.6 0.00 0.00 0.00 86 1010.1
20260901121610 57 0 0.0 0.9 0.00 0.00 0.00 85 1010.0
20260901120112 56 0 0.0 0.0 0.00 0.00 0.00 85 1010.0
20260901114606 56 0 0.0 0.0 0.00 0.00 0.00 85 1009.8
20260901113100 55 0 0.0 0.0 0.00 0.00 0.00 86 1009.8
20260901111609 56 0 0.0 0.0 0.00 0.00 0.00 86 1009.9
20260901110059 56 0 0.0 0.0 0.00 0.00 0.00 86 1009.9
20260901104600 56 0 0.0 0.0 0.00 0.00 0.00 86 1009.9
20260901103107 56 0 0.0 0.0 0.00 0.00 0.00 86 1009.8
20260901101601 56 0 0.0 0.0 0.00 0.00 0.00 86 1009.7
20260901100109 57 0 0.0 0.0 0.00 0.00 0.00 86 1009.5
20260901094601 57 0 0.0 0.0 0.00 0.00 0.00 86 1009.3
20260901093108 57 0 0.0 0.0 0.00 0.00 0.00 86 1009.4
20260901091620 57 0 0.0 0.0 0.00 0.00 0.00 86 1009.4
20260901090107 58 0 0.0 0.0 0.00 0.00 0.00 85 1009.4
20260901084608 58 0 0.0 0.0 0.00 0.00 0.00 86 1009.3
20260901083106 58 0 0.0 0.0 0.00 0.00 0.00 85 1009.3
20260901081559 59 0 0.0 0.0 0.00 0.00 0.00 85 1009.4
20260901080106 59 0 0.0 0.0 0.00 0.00 0.00 85 1009.1
20260901074605 59 0 0.0 0.0 0.00 0.00 0.00 84 1009.2
20260901073108 59 0 0.0 0.0 0.00 0.00 0.00 83 1009.1
20260901071604 59 0 0.0 0.0 0.00 0.00 0.00 82 1009.3
20260901070059 60 0 0.0 0.0 0.00 0.00 0.00 81 1009.2
20260901064614 60 0 0.0 0.0 0.00 0.00 0.00 81 1009.2
20260901063059 60 0 0.0 0.0 0.00 0.00 0.00 81 1009.2
20260901061602 61 0 0.0 0.0 0.00 0.00 0.00 80 1009.2
20260901060105 61 0 0.0 0.0 0.00 0.00 0.00 80 1009.4
20260901054601 62 0 0.0 0.0 0.00 0.00 0.00 79 1009.3
20260901053105 62 0 0.0 0.0 0.00 0.00 0.00 78 1009.4
20260901051555 63 0 0.0 0.0 0.00 0.00 0.00 78 1009.6
20260901050105 63 0 0.0 0.0 0.00 0.00 0.00 78 1009.6
20260901044603 63 0 0.0 0.0 0.00 0.00 0.00 78 1009.7
20260901043059 63 0 0.0 0.0 0.00 0.00 0.00 77 1009.6
20260901041557 64 0 0.0 0.0 0.00 0.00 0.00 76 1009.6
20260901040106 64 0 0.0 0.0 0.00 0.00 0.00 75 1009.5
20260901034557 65 0 0.0 0.0 0.00 0.00 0.00 74 1009.4
20260901033059 66 0 0.0 0.0 0.00 0.00 0.00 72 1009.3